Domov               UVHVVR             MKGP            O straneh              
ZDRAVSTVENO VARSTVO RASTLIN
  MREŽA AGROMET. POSTAJ
 ► PROGNOSTIČNA OBVESTILA
AGROMETEOROLOŠKI PODATKI -
ARSO
OBVLADOVANJE TVEGANJ ZARADI
NEUGODNIH VREMENSKIH RAZMER
  ► NARAVNE NESREČE
  ► SUŠA/MOČA
  ► NAMAKANJE
  ► ŽLED (gozdarstvo)
KARTOGRAFSKI PRIKAZI
SPLETNE POVEZAVE
PROJEKTI IN PUBLIKACIJE

AGROMETEOROLOŠKA MREŽA: VREMENSKE POSTAJE IN FENOLOŠKA OPAZOVANJA

Pregled podatkov za lokacijo Zavrhek, meteorološka postaja 37907

Pregled senzorjev na lokaciji

ID Ime Zadnja
vrednost
Datum
zadnje
spremembe
Tip
senzorja
1991 Padavine (mm) 0 mm 23.3.2019 00:00 Rain-O-Matic
1990 Relativna vlaga 2 m (% RH) 36,78 % RH 23.3.2019 00:00 50YA
1989 Temperatura 2 m (°C) 11,36 °C 23.3.2019 00:00 50YA

Pregled podatkov zadnjih 24 ur

Zap.
št.
Datum in čas Zavrhek
Padavine Relativna
vlaga
2
m
Temperatura
2
m
1 22.3.2019 23:30
2 22.3.2019 23:00
3 22.3.2019 22:30
4 22.3.2019 22:00
5 22.3.2019 21:30 0 32,2 11,1
6 22.3.2019 21:00 0 30,7 11,3
7 22.3.2019 20:30 0 30,2 11,5
8 22.3.2019 20:00 0 28,7 12
9 22.3.2019 19:30 0 25,8 12,4
10 22.3.2019 19:00 0 22 13,4
11 22.3.2019 18:30 0 20,3 14
12 22.3.2019 18:00 0 18,9 14,8
13 22.3.2019 17:30 0 18,8 15,9
14 22.3.2019 17:00 0 19,6 17,1
15 22.3.2019 16:30 0 19,8 17,9
16 22.3.2019 16:00 0 19,1 18,4
17 22.3.2019 15:30 0 18,3 18,5
18 22.3.2019 15:00 0 19 18,7
19 22.3.2019 14:30 0 19,6 18,9
20 22.3.2019 14:00 0 19,6 18,6
21 22.3.2019 13:30 0 20,1 18,1
22 22.3.2019 13:00 0 22,6 17,7
23 22.3.2019 12:30 0 24,4 17,1
24 22.3.2019 12:00 0 25,1 16,2
25 22.3.2019 11:30 0 28,1 15,4
26 22.3.2019 11:00 0 29,9 14,4
27 22.3.2019 10:30 0 30,9 13,7
28 22.3.2019 10:00 0 31,7 13,1
29 22.3.2019 09:30 0 32,7 12,4
30 22.3.2019 09:00 0 36,2 10,9
31 22.3.2019 08:30 0 39,2 9,9
32 22.3.2019 08:00 0 40,8 9,3
33 22.3.2019 07:30 0 43,1 8,3
34 22.3.2019 07:00 0 46,2 7,1
35 22.3.2019 06:30 0 47,9 6,6
36 22.3.2019 06:00 0 50,6 6
37 22.3.2019 05:30 0 49,8 6,2
38 22.3.2019 05:00 0 49,4 6,3
39 22.3.2019 04:30 0 50,3 6,3
40 22.3.2019 04:00 0 49,2 6,3
41 22.3.2019 03:30 0 48,2 6,6
42 22.3.2019 03:00 0 47,3 6,9
43 22.3.2019 02:30 0 46,1 7,1
44 22.3.2019 02:00 0 44,2 7,4
45 22.3.2019 01:30 0 41,6 7,7
46 22.3.2019 01:00 0 41,9 8
47 22.3.2019 00:30 0 41,1 8,4
48 22.3.2019 00:00 0 41,9 8,4
© 2011 Ministrstvo za kmetijstvo, gozdarstvo in prehrano. Vse pravice pridržane.